Lake Mendocino Weather Center

Moon Phase Calendar



Lake Mendocino Water Level
Online Cameras

 


      

Current Conditions in Redwood Valley
6/19/2021 12:06:17 AM

66°F
Feels Like 64
Clear
Humidity
49%
Pressure
29.71"
Wind
0
Dew Point
46°F
UV Index
0/10 (Low)
Visibility
6 mi

Hourly Forecast

Date & Time Sat, Jun 19
12:00 AM
Sat, Jun 19
1:00 AM
Sat, Jun 19
2:00 AM
Sat, Jun 19
3:00 AM
Sat, Jun 19
4:00 AM
Sat, Jun 19
5:00 AM
Sat, Jun 19
6:00 AM
Sat, Jun 19
7:00 AM
Sat, Jun 19
8:00 AM
Sat, Jun 19
9:00 AM
Sat, Jun 19
10:00 AM
Sat, Jun 19
11:00 AM
Sat, Jun 19
12:00 PM
Sat, Jun 19
1:00 PM
Sat, Jun 19
2:00 PM
Sat, Jun 19
3:00 PM
Sat, Jun 19
4:00 PM
Sat, Jun 19
5:00 PM
Sat, Jun 19
6:00 PM
Sat, Jun 19
7:00 PM
Sat, Jun 19
8:00 PM
Sat, Jun 19
9:00 PM
Sat, Jun 19
10:00 PM
Sat, Jun 19
11:00 PM
Sun, Jun 20
12:00 AM
Sun, Jun 20
1:00 AM
Sun, Jun 20
2:00 AM
Sun, Jun 20
3:00 AM
Sun, Jun 20
4:00 AM
Sun, Jun 20
5:00 AM
Sun, Jun 20
6:00 AM
Sun, Jun 20
7:00 AM
Sun, Jun 20
8:00 AM
Sun, Jun 20
9:00 AM
Sun, Jun 20
10:00 AM
Sun, Jun 20
11:00 AM
Sun, Jun 20
12:00 PM
Sun, Jun 20
1:00 PM
Sun, Jun 20
2:00 PM
Sun, Jun 20
3:00 PM
Sun, Jun 20
4:00 PM
Sun, Jun 20
5:00 PM
Sun, Jun 20
6:00 PM
Sun, Jun 20
7:00 PM
Sun, Jun 20
8:00 PM
Sun, Jun 20
9:00 PM
Sun, Jun 20
10:00 PM
Sun, Jun 20
11:00 PM
Condition
Clear

Clear

Clear

Clear

Clear

Clear

Clear

Clear

Clear

Clear

Clear

Clear

Clear

Clear

Clear

Clear

Clear

Clear

Clear

Clear

Clear

Clear

Clear

Clear

Clear

Clear

Clear

Clear

Clear

Clear

Clear

Clear

Clear

Clear

Clear

Clear

Clear

Clear

Clear

Clear

Clear

Clear

Clear

Clear

Clear

Clear

Clear

Clear
Temperature 66°F66°F66°F66°F65°F65°F65°F71°F81°F90°F96°F100°F104°F106°F107°F106°F104°F102°F99°F94°F83°F73°F70°F69°F68°F67°F66°F66°F65°F65°F64°F70°F79°F87°F93°F97°F101°F102°F102°F99°F95°F93°F91°F87°F78°F67°F63°F62°F
Feels Like 64°F64°F64°F64°F64°F63°F63°F69°F80°F86°F91°F95°F97°F99°F100°F100°F98°F97°F94°F90°F81°F72°F69°F68°F67°F66°F65°F64°F64°F63°F62°F69°F79°F83°F88°F92°F95°F97°F97°F95°F91°F90°F88°F84°F78°F66°F63°F61°F
Cloudiness 1%1%1%0%0%0%0%0%0%0%0%0%0%0%0%0%0%0%0%0%0%0%0%0%0%0%0%0%0%0%0%0%0%0%0%0%0%0%0%0%0%0%0%0%0%0%0%0%
Visibility 6 mi6 mi6 mi6 mi6 mi6 mi6 mi6 mi6 mi6 mi6 mi6 mi6 mi6 mi6 mi6 mi6 mi6 mi6 mi6 mi6 mi6 mi6 mi6 mi6 mi6 mi6 mi6 mi6 mi6 mi6 mi6 mi6 mi6 mi6 mi6 mi6 mi6 mi6 mi6 mi6 mi6 mi6 mi6 mi6 mi6 mi6 mi6 mi
Precipitation 0%0%0%0%0%0%0%0%0%0%0%0%0%0%0%0%0%0%0%0%0%0%0%0%0%0%0%0%0%0%0%0%0%0%0%0%0%0%0%0%0%0%0%0%0%0%0%0%
Humidity 49%48%48%46%44%40%38%34%23%17%12%9%7%5%5%7%9%11%14%18%31%43%45%46%47%47%47%46%46%45%43%37%25%18%13%9%8%8%9%13%18%20%22%26%40%58%66%68%
Dew Point 46°F46°F46°F44°F43°F37°F36°F39°F38°F37°F34°F29°F25°F22°F22°F26°F31°F34°F37°F41°F47°F46°F45°F45°F44°F44°F43°F42°F41°F40°F38°F40°F39°F36°F32°F29°F28°F28°F32°F37°F41°F43°F44°F46°F50°F49°F49°F49°F
Pressure 29.71"29.71"29.71"29.74"29.74"29.74"29.74"29.74"29.74"29.74"29.71"29.71"29.68"29.68"29.68"29.65"29.65"29.65"29.65"29.68"29.68"29.71"29.74"29.74"29.74"29.74"29.74"29.74"29.74"29.74"29.77"29.77"29.77"29.77"29.77"29.74"29.74"29.74"29.71"29.71"29.74"29.74"29.74"29.74"29.77"29.8"29.83"29.83"
Wind Speed 2.2 mph2 mph1.8 mph2.1 mph2.4 mph2.5 mph2.7 mph2.4 mph1.9 mph3 mph4.5 mph5.6 mph6.6 mph7.9 mph8.4 mph8 mph7.7 mph7.8 mph7.3 mph5 mph3.4 mph1.7 mph2 mph2.6 mph2.5 mph2.7 mph2.6 mph2.7 mph2.3 mph2.2 mph2.7 mph2.1 mph1.8 mph3.3 mph4.4 mph5.4 mph6.4 mph8.2 mph8.7 mph9.3 mph9.2 mph7 mph5.8 mph5 mph4.2 mph3 mph2.1 mph0.6 mph
Wind
Direction

N
21°
NNE
34°
NE
41°
NE
73°
ENE
76°
ENE
67°
ENE
73°
ENE
117°
ESE
160°
SSE
175°
S
181°
S
185°
S
197°
SSW
211°
SSW
222°
SW
230°
SW
235°
SW
246°
WSW
257°
WSW
274°
W
311°
NW
36°
NE
62°
ENE
70°
ENE
71°
ENE
69°
ENE
63°
ENE
73°
ENE
79°
E
96°
E
96°
E
146°
SE
179°
S
190°
S
191°
S
195°
SSW
210°
SSW
227°
SW
240°
WSW
247°
WSW
252°
WSW
257°
WSW
268°
W
267°
W
276°
W
331°
NNW
360°
N

Daily Forecast

Date High Low Precip. Humidity
Today
Jun 19

Clear
107 °F
65 °F
0%
5%
Sunday
Jun 20

Clear
102 °F
62 °F
0%
8%
Monday
Jun 21

Clear
94 °F
54 °F
0%
15%
Tuesday
Jun 22

Clear
86 °F
49 °F
7%
28%
Wednesday
Jun 23

Clear
86 °F
52 °F
0%
30%
Thursday
Jun 24

Clear
93 °F
53 °F
0%
21%
Friday
Jun 25

Clear
107 °F
66 °F
0%
12%
Saturday
Jun 26

Rain
103 °F
67 °F
26%
16%
Sunday
Jun 27

Clear
104 °F
65 °F
0%
12%
Monday
Jun 28

Clouds
106 °F
65 °F
0%
8%
Tuesday
Jun 29

Clear
100 °F
60 °F
0%
15%
Wednesday
Jun 30

Clear
94 °F
54 °F
0%
21%
Thursday
Jul 1

Clear
91 °F
53 °F
0%
22%
Friday
Jul 2

Clouds
93 °F
53 °F
0%
21%
Saturday
Jul 3

Clouds
78 °F
50 °F
6%
39%
Sunday
Jul 4

Clear
83 °F
53 °F
0%
35%

Temperature 8-14 Day Outlook



Precipitation 8-14 Day Outlook




Quick Links
Lake Mendocino News
Lake Mendocino Photos
Lake Mendocino Videos




About Us
Contact Us
Site Map
Search Site
Advertise With Us
   
Mendocino.LakesOnline.com
THE LAKE MENDOCINO WEBSITE

Copyright 2021, Lakes Online
Privacy    |    Legal